Location: Unspecified
(0.0000°N, 0.0000°E)
Time: 00:06:40
(UTC+00:00)

Hubble Space Telescope - Pass Details

Date: 19 February 2020
Orbit: 536 x 540 km, 28.5° (Epoch: 26 February)

Event Time Altitude Azimuth Distance (km) Brightness Sun altitude
Exits shadow 05:27:38 11° 248° (WSW) 1,686 2.8 -11.3°
Maximum altitude 05:30:06 18° 208° (SSW) 1,353 2.6 -10.7°
Drops below altitude 10° 05:32:57 10° 165° (SSE) 1,781 3.8 -10.0°
Sets 05:35:47 0° 145° (SE) 2,672 5.1 -9.3°
